• In Belarus
  • List of Countries
  • For 7 days
  • Water Temperature
  • Weather Map
  • Weather Widgets
  • user-avatar
    Login

    Hourly Weather Srednyaya Korsa

    Today, 15 December, Sunday

    Time Temperature Precipitation Wind Pressure Humidity
    00:00 -11°C° 0 mm 4 mps 761 mmHg 87%
    01:00 -11°C° 0 mm 4 mps 761 mmHg 86%
    02:00 -12°C° 0 mm 4 mps 761 mmHg 86%
    03:00 -12°C° 0 mm 4 mps 761 mmHg 85%
    04:00 -11°C° 0 mm 4 mps 761 mmHg 84%
    05:00 -11°C° 0 mm 4 mps 761 mmHg 83%
    06:00 -11°C° 0 mm 4 mps 760 mmHg 82%
    07:00 -12°C° 0 mm 5 mps 760 mmHg 82%
    08:00 -11°C° 0 mm 5 mps 760 mmHg 81%
    09:00 -11°C° 0 mm 5 mps 761 mmHg 79%
    10:00 -11°C° 0 mm 5 mps 760 mmHg 78%
    11:00 -10°C° 0 mm 5 mps 760 mmHg 77%
    12:00 -10°C° 0 mm 5 mps 760 mmHg 76%
    13:00 -10°C° 0 mm 5 mps 760 mmHg 77%
    14:00 -10°C° 0 mm 5 mps 760 mmHg 78%
    15:00 -10°C° 0 mm 5 mps 760 mmHg 79%
    16:00 -10°C° 0 mm 5 mps 760 mmHg 79%
    17:00 -10°C° 0 mm 5 mps 759 mmHg 80%
    18:00 -10°C° 0 mm 5 mps 759 mmHg 80%
    19:00 -10°C° 0 mm 5 mps 759 mmHg 82%
    20:00 -10°C° 0 mm 5 mps 759 mmHg 83%
    21:00 -10°C° 0 mm 5 mps 759 mmHg 85%
    22:00 -10°C° 0 mm 5 mps 758 mmHg 87%
    23:00 -11°C° 0 mm 5 mps 758 mmHg 89%

    Tomorrow, 16 December, Monday

    Time Temperature Precipitation Wind Pressure Humidity
    00:00 -11°C° 0 mm 5 mps 758 mmHg 91%
    01:00 -11°C° 0 mm 5 mps 758 mmHg 91%
    02:00 -10°C° 0 mm 5 mps 758 mmHg 91%
    03:00 -10°C° 0 mm 5 mps 757 mmHg 92%
    04:00 -10°C° 0 mm 5 mps 757 mmHg 92%
    05:00 -11°C° 0 mm 5 mps 756 mmHg 93%
    06:00 -11°C° 0 mm 5 mps 756 mmHg 93%
    07:00 -10°C° 0 mm 5 mps 756 mmHg 93%
    08:00 -10°C° 0 mm 5 mps 756 mmHg 93%
    09:00 -8°C° 0 mm 5 mps 756 mmHg 92%
    10:00 -9°C° 0 mm 6 mps 755 mmHg 92%
    11:00 -8°C° 0 mm 6 mps 754 mmHg 92%
    12:00 -8°C° 0 mm 6 mps 754 mmHg 92%
    13:00 -8°C° 0.1 mm 6 mps 753 mmHg 92%
    14:00 -8°C° 0.1 mm 6 mps 753 mmHg 93%
    15:00 -8°C° 0.1 mm 6 mps 752 mmHg 93%
    16:00 -8°C° 0.3 mm 6 mps 752 mmHg 94%
    17:00 -8°C° 0.3 mm 6 mps 751 mmHg 94%
    18:00 -6°C° 0.3 mm 6 mps 751 mmHg 95%
    19:00 -6°C° 0.6 mm 6 mps 751 mmHg 95%
    20:00 -5°C° 0.6 mm 6 mps 750 mmHg 95%
    21:00 -5°C° 0.6 mm 6 mps 750 mmHg 95%
    22:00 -5°C° 0.1 mm 5 mps 750 mmHg 96%
    23:00 -4°C° 0.1 mm 5 mps 750 mmHg 96%

    Day after tomorrow, 17 December, Tuesday

    Time Temperature Precipitation Wind Pressure Humidity
    00:00 -3°C° 0.1 mm 4 mps 749 mmHg 96%
    01:00 -3°C° 0 mm 4 mps 749 mmHg 96%
    02:00 -3°C° 0 mm 4 mps 749 mmHg 96%
    03:00 -3°C° 0 mm 4 mps 749 mmHg 96%
    04:00 -2°C° 0.1 mm 3 mps 749 mmHg 97%
    05:00 -4°C° 0.1 mm 3 mps 749 mmHg 97%
    06:00 -3°C° 0.1 mm 2 mps 748 mmHg 97%
    07:00 -3°C° 0.2 mm 2 mps 749 mmHg 97%
    08:00 -3°C° 0.2 mm 2 mps 749 mmHg 97%
    09:00 -3°C° 0.2 mm 2 mps 749 mmHg 98%
    10:00 -3°C° 0.1 mm 2 mps 748 mmHg 97%
    11:00 -2°C° 0.1 mm 2 mps 748 mmHg 97%
    12:00 0°C° 0.1 mm 1 mps 748 mmHg 97%
    13:00 -3°C° 0.1 mm 2 mps 748 mmHg 97%
    14:00 -4°C° 0.1 mm 2 mps 749 mmHg 97%
    15:00 -4°C° 0.1 mm 2 mps 749 mmHg 97%
    16:00 -4°C° 0 mm 2 mps 749 mmHg 97%
    17:00 -4°C° 0 mm 2 mps 749 mmHg 97%
    18:00 -4°C° 0 mm 2 mps 749 mmHg 96%
    19:00 -4°C° 0 mm 2 mps 749 mmHg 97%
    20:00 -5°C° 0 mm 2 mps 749 mmHg 97%
    21:00 -5°C° 0 mm 2 mps 749 mmHg 97%
    22:00 -4°C° 0.1 mm 2 mps 749 mmHg 97%
    23:00 -4°C° 0.1 mm 2 mps 749 mmHg 97%

    18 December, Wednesday

    Time Temperature Precipitation Wind Pressure Humidity
    00:00 -4°C° 0.1 mm 2 mps 749 mmHg 97%
    01:00 -3°C° 0.1 mm 2 mps 748 mmHg 97%
    02:00 -4°C° 0.1 mm 3 mps 748 mmHg 97%
    03:00 -4°C° 0.1 mm 3 mps 747 mmHg 97%
    04:00 -4°C° 0.4 mm 3 mps 747 mmHg 97%
    05:00 -4°C° 0.4 mm 3 mps 746 mmHg 97%
    06:00 -3°C° 0.4 mm 2 mps 746 mmHg 97%
    07:00 -2°C° 0.5 mm 2 mps 745 mmHg 97%
    08:00 -2°C° 0.5 mm 2 mps 745 mmHg 97%
    09:00 -2°C° 0.5 mm 2 mps 745 mmHg 97%
    10:00 -2°C° 0.1 mm 3 mps 745 mmHg 97%
    11:00 -2°C° 0.1 mm 3 mps 745 mmHg 97%
    12:00 -2°C° 0.1 mm 3 mps 745 mmHg 96%
    13:00 -2°C° 0.1 mm 3 mps 745 mmHg 96%
    14:00 -4°C° 0.1 mm 3 mps 746 mmHg 96%
    15:00 -4°C° 0.1 mm 4 mps 746 mmHg 96%
    16:00 -4°C° 0 mm 4 mps 747 mmHg 95%
    17:00 -4°C° 0 mm 4 mps 747 mmHg 95%
    18:00 -5°C° 0 mm 4 mps 748 mmHg 94%
    19:00 -4°C° 0 mm 4 mps 748 mmHg 94%
    20:00 -4°C° 0 mm 4 mps 749 mmHg 93%
    21:00 -4°C° 0 mm 4 mps 749 mmHg 92%
    22:00 -4°C° 0 mm 3 mps 750 mmHg 93%
    23:00 -4°C° 0 mm 3 mps 750 mmHg 93%

    19 December, Thursday

    Time Temperature Precipitation Wind Pressure Humidity
    00:00 -4°C° 0 mm 3 mps 750 mmHg 94%
    01:00 -4°C° 0 mm 3 mps 750 mmHg 94%
    02:00 -4°C° 0 mm 3 mps 751 mmHg 94%
    03:00 -4°C° 0 mm 3 mps 751 mmHg 94%
    04:00 -4°C° 0 mm 3 mps 751 mmHg 95%
    05:00 -3°C° 0 mm 2 mps 751 mmHg 95%
    06:00 -3°C° 0 mm 2 mps 751 mmHg 96%
    07:00 -3°C° 0 mm 2 mps 751 mmHg 96%
    08:00 -4°C° 0 mm 2 mps 751 mmHg 96%
    09:00 -4°C° 0 mm 2 mps 751 mmHg 96%
    10:00 -5°C° 0 mm 3 mps 751 mmHg 95%
    11:00 -5°C° 0 mm 4 mps 750 mmHg 94%
    12:00 -5°C° 0 mm 4 mps 750 mmHg 93%
    13:00 -6°C° 0.3 mm 5 mps 749 mmHg 94%
    14:00 -5°C° 0.3 mm 6 mps 748 mmHg 95%
    15:00 -6°C° 0.3 mm 7 mps 747 mmHg 96%
    16:00 -4°C° 0.7 mm 7 mps 746 mmHg 96%
    17:00 -4°C° 0.7 mm 7 mps 745 mmHg 96%
    18:00 -4°C° 0.7 mm 8 mps 744 mmHg 96%
    19:00 -4°C° 0.2 mm 8 mps 743 mmHg 97%
    20:00 -2°C° 0.2 mm 8 mps 742 mmHg 97%
    21:00 -1°C° 0.2 mm 8 mps 741 mmHg 98%
    22:00 -1°C° 0.1 mm 7 mps 740 mmHg 98%
    23:00 -1°C° 0.1 mm 7 mps 739 mmHg 98%

    20 December, Friday

    Time Temperature Precipitation Wind Pressure Humidity
    00:00 -1°C° 0.1 mm 6 mps 739 mmHg 98%
    01:00 -1°C° 0.3 mm 6 mps 738 mmHg 98%
    02:00 -2°C° 0.3 mm 6 mps 737 mmHg 98%
    03:00 -2°C° 0.3 mm 6 mps 737 mmHg 98%
    04:00 -2°C° 0.7 mm 6 mps 736 mmHg 98%
    05:00 -2°C° 0.7 mm 6 mps 736 mmHg 98%
    06:00 -2°C° 0.7 mm 6 mps 736 mmHg 97%
    07:00 -2°C° 0.3 mm 6 mps 736 mmHg 96%
    08:00 -2°C° 0.3 mm 7 mps 736 mmHg 94%
    09:00 -3°C° 0.3 mm 7 mps 736 mmHg 93%
    10:00 -3°C° 0.1 mm 7 mps 736 mmHg 92%
    11:00 -3°C° 0.1 mm 7 mps 737 mmHg 91%
    12:00 -4°C° 0.1 mm 7 mps 737 mmHg 90%
    13:00 -4°C° 0 mm 7 mps 737 mmHg 90%
    14:00 -4°C° 0 mm 7 mps 738 mmHg 90%
    15:00 -4°C° 0 mm 7 mps 738 mmHg 91%
    16:00 -6°C° 0.1 mm 7 mps 738 mmHg 90%
    17:00 -6°C° 0.1 mm 7 mps 739 mmHg 89%
    18:00 -6°C° 0.1 mm 7 mps 740 mmHg 87%
    19:00 -6°C° 0 mm 7 mps 740 mmHg 89%
    20:00 -6°C° 0 mm 7 mps 740 mmHg 90%
    21:00 -6°C° 0 mm 7 mps 741 mmHg 92%
    22:00 -7°C° 0 mm 7 mps 741 mmHg 91%
    23:00 -8°C° 0 mm 6 mps 742 mmHg 89%
    Show more